Satellite: RAX-2 Catalog number: 37853 Epoch time: 12215.76004671 Element set: 246 Inclination: 101.7106 deg RA of node: 277.1584 deg Eccentricity: 0.0246206 Arg of perigee: 218.1782 deg Mean anomaly: 140.1745 deg Mean motion: 14.80274703 rev/day Decay rate: 3.200e-05 rev/day^2 Epoch rev: 4128 Checksum: 268
Satellite: AUBIESAT Catalog number: 37854 Epoch time: 12214.89154877 Element set: 0255 Inclination: 101.7114 deg RA of node: 276.1984 deg Eccentricity: 0.0247238 Arg of perigee: 219.6684 deg Mean anomaly: 138.6203 deg Mean motion: 14.80668086 rev/day Decay rate: +3.204e-05 rev/day^2 Epoch rev: 04115 Checksum: 312
Satellite: HRBE Catalog number: 37855 Epoch time: 12214.84226442 Element set: 0250 Inclination: 101.7118 deg RA of node: 276.0734 deg Eccentricity: 0.0247949 Arg of perigee: 220.0628 deg Mean anomaly: 138.2032 deg Mean motion: 14.80509289 rev/day Decay rate: +2.553e-05 rev/day^2 Epoch rev: 04114 Checksum: 280
Satellite: RS-39 Catalog number: 38051 Epoch time: 12215.73803604 Element set: 571 Inclination: 051.6356 deg RA of node: 297.9020 deg Eccentricity: 0.0013900 Arg of perigee: 202.6990 deg Mean anomaly: 301.9069 deg Mean motion: 15.24957299 rev/day Decay rate: 9.592e-05 rev/day^2 Epoch rev: 2907 Checksum: 313
Satellite: E-STAR Catalog number: 38079 Epoch time: 12215.42880991 Element set: 398 Inclination: 069.4890 deg RA of node: 209.7797 deg Eccentricity: 0.0732534 Arg of perigee: 189.6248 deg Mean anomaly: 169.0130 deg Mean motion: 14.17545081 rev/day Decay rate: 2.9218e-04 rev/day^2 Epoch rev: 2413 Checksum: 334
Satellite: GOLIAT Catalog number: 38085 Epoch time: 12215.38235746 Element set: 369 Inclination: 069.4875 deg RA of node: 210.3122 deg Eccentricity: 0.0738288 Arg of perigee: 189.9680 deg Mean anomaly: 168.6087 deg Mean motion: 14.16519567 rev/day Decay rate: 2.9524e-04 rev/day^2 Epoch rev: 2411 Checksum: 336
Satellite: HORYU-2 Catalog number: 38340 Epoch time: 12215.45240283 Element set: 77 Inclination: 098.1748 deg RA of node: 155.2916 deg Eccentricity: 0.0013075 Arg of perigee: 177.8031 deg Mean anomaly: 182.3290 deg Mean motion: 14.70063795 rev/day Decay rate: 8.25e-06 rev/day^2 Epoch rev: 1127 Checksum: 285
/EX
participants (1)
-
Ray Hoad